ROOKIE5 EFHA-EFOU

Flight info

Callsign ROOKIE5
Flight time 0h 33m
Altitude 38000
Route BOZUS DCT ADEDO Y75 SUVIB
Aircraft F35/M-SDGIRUY/C

Departure

Time 2026-04-30 19:14
Airport Halli Airport (EFHA)

Arrival

Time 2026-04-30 19:48
Airport Oulu Airport (EFOU)
Time Latitude Longitude Altitude Speed Heading
2026-04-30 18:52 61.85872 24.81562 477 ft 0 kts 90°
2026-04-30 19:10 61.85872 24.81572 477 ft 4 kts 90°
2026-04-30 19:11 61.85872 24.81597 477 ft 0 kts 90°
2026-04-30 19:11 61.85875 24.81598 477 ft 1 kts 23°
2026-04-30 19:11 61.85877 24.81595 477 ft 1 kts 335°
2026-04-30 19:12 61.85867 24.81571 472 ft 8 kts 212°
2026-04-30 19:12 61.85843 24.81473 477 ft 8 kts 262°
2026-04-30 19:12 61.85835 24.81275 477 ft 15 kts 259°
2026-04-30 19:13 61.85735 24.81062 480 ft 11 kts 207°
2026-04-30 19:13 61.85675 24.80951 481 ft 0 kts 263°
2026-04-30 19:14 61.85671 24.80806 482 ft 57 kts 268°
2026-04-30 19:14 61.85611 24.78557 521 ft 240 kts 267°
2026-04-30 19:14 61.85443 24.74198 1741 ft 328 kts 266°
2026-04-30 19:14 61.85515 24.69870 2402 ft 264 kts 283°
2026-04-30 19:15 61.85912 24.66293 3088 ft 247 kts 293°
2026-04-30 19:15 61.87816 24.60277 4550 ft 247 kts 309°
2026-04-30 19:15 61.88828 24.57264 5302 ft 250 kts 307°
2026-04-30 19:16 61.89767 24.54103 6059 ft 255 kts 304°
2026-04-30 19:16 61.90639 24.50860 6802 ft 259 kts 302°
2026-04-30 19:16 61.92112 24.43890 8632 ft 255 kts 315°
2026-04-30 19:17 61.93579 24.41981 9805 ft 248 kts 351°
2026-04-30 19:17 61.96943 24.42963 13667 ft 246 kts 15°
2026-04-30 19:17 61.98570 24.44049 15921 ft 251 kts
2026-04-30 19:18 62.01851 24.44704 19783 ft 370 kts
2026-04-30 19:18 62.05697 24.45324 23002 ft 415 kts
2026-04-30 19:18 62.08548 24.46253 25289 ft 416 kts
2026-04-30 19:19 62.11616 24.46994 27606 ft 465 kts
2026-04-30 19:19 62.14771 24.47807 30112 ft 451 kts
2026-04-30 19:19 62.20907 24.49434 35185 ft 437 kts
2026-04-30 19:20 62.23972 24.50247 37032 ft 456 kts
2026-04-30 19:20 62.27153 24.51105 37705 ft 461 kts
2026-04-30 19:20 62.33486 24.52779 38071 ft 457 kts
2026-04-30 19:21 62.36599 24.53614 38119 ft 456 kts
2026-04-30 19:22 62.49153 24.56976 38177 ft 454 kts
2026-04-30 19:23 62.67896 24.63056 38201 ft 457 kts 12°
2026-04-30 19:24 62.77146 24.67544 38201 ft 457 kts 11°
2026-04-30 19:25 62.92627 24.74787 38193 ft 455 kts
2026-04-30 19:26 63.05046 24.80662 38149 ft 456 kts
2026-04-30 19:27 63.14363 24.85097 38202 ft 459 kts
2026-04-30 19:28 63.23710 24.89572 38186 ft 459 kts
2026-04-30 19:29 63.36186 24.95596 36711 ft 459 kts
2026-04-30 19:29 63.39307 24.97107 35949 ft 459 kts
2026-04-30 19:30 63.48674 25.01674 33539 ft 459 kts
2026-04-30 19:30 63.54918 25.04736 31763 ft 466 kts
2026-04-30 19:31 63.61232 25.07843 30058 ft 471 kts
2026-04-30 19:31 63.64445 25.09432 29078 ft 474 kts
2026-04-30 19:31 63.70943 25.12653 27224 ft 481 kts
2026-04-30 19:32 63.74221 25.14285 26372 ft 484 kts
2026-04-30 19:32 63.77504 25.15924 25520 ft 486 kts
2026-04-30 19:32 63.80827 25.17583 24686 ft 490 kts
2026-04-30 19:32 63.84172 25.19261 23881 ft 493 kts
2026-04-30 19:33 63.87523 25.20945 22952 ft 496 kts
2026-04-30 19:33 63.90869 25.22630 22046 ft 499 kts
2026-04-30 19:33 63.94267 25.24348 21137 ft 503 kts
2026-04-30 19:33 63.97696 25.26082 20264 ft 506 kts
2026-04-30 19:34 64.01136 25.27827 19419 ft 509 kts
2026-04-30 19:34 64.04606 25.29594 18740 ft 511 kts
2026-04-30 19:34 64.11594 25.33160 17491 ft 516 kts
2026-04-30 19:35 64.15096 25.34956 16851 ft 519 kts
2026-04-30 19:35 64.18623 25.36769 15711 ft 518 kts 10°
2026-04-30 19:35 64.22131 25.38574 13263 ft 507 kts 11°
2026-04-30 19:35 64.25425 25.40286 11323 ft 462 kts 11°
2026-04-30 19:36 64.28350 25.41802 10641 ft 411 kts 10°
2026-04-30 19:36 64.30999 25.43175 10344 ft 369 kts 10°
2026-04-30 19:36 64.35510 25.45524 10157 ft 298 kts 10°
2026-04-30 19:37 64.37420 25.46525 10142 ft 265 kts
2026-04-30 19:37 64.39215 25.47451 10090 ft 267 kts
2026-04-30 19:37 64.41025 25.48387 9332 ft 263 kts
2026-04-30 19:37 64.42797 25.49324 8534 ft 259 kts
2026-04-30 19:38 64.44554 25.50247 7757 ft 258 kts
2026-04-30 19:38 64.46286 25.51153 7241 ft 257 kts
2026-04-30 19:38 64.48015 25.52060 6747 ft 257 kts
2026-04-30 19:38 64.49750 25.52977 6234 ft 256 kts
2026-04-30 19:39 64.51486 25.53892 5715 ft 254 kts 10°
2026-04-30 19:39 64.53200 25.54794 5195 ft 252 kts 10°
2026-04-30 19:39 64.54906 25.55695 4675 ft 252 kts 10°
2026-04-30 19:39 64.56612 25.56598 4152 ft 251 kts 10°
2026-04-30 19:40 64.58307 25.57500 3637 ft 249 kts 10°
2026-04-30 19:40 64.59994 25.58393 3123 ft 249 kts 11°
2026-04-30 19:40 64.61115 25.58986 2797 ft 248 kts 11°
2026-04-30 19:40 64.62793 25.59881 2525 ft 248 kts 11°
2026-04-30 19:41 64.65032 25.61076 2390 ft 250 kts 11°
2026-04-30 19:41 64.66724 25.61975 2354 ft 248 kts 11°
2026-04-30 19:41 64.68415 25.62880 2343 ft 251 kts 10°
2026-04-30 19:41 64.70125 25.63795 2324 ft 251 kts 10°
2026-04-30 19:42 64.71267 25.64405 2316 ft 251 kts 10°
2026-04-30 19:42 64.72950 25.65305 2312 ft 251 kts 10°
2026-04-30 19:42 64.74654 25.66221 2312 ft 251 kts 10°
2026-04-30 19:42 64.76363 25.67138 2311 ft 251 kts 11°
2026-04-30 19:43 64.78595 25.68341 2310 ft 237 kts 10°
2026-04-30 19:43 64.79626 25.68905 2292 ft 215 kts 10°
2026-04-30 19:43 64.81021 25.69643 2279 ft 204 kts
2026-04-30 19:44 64.83333 25.66837 2309 ft 193 kts 314°
2026-04-30 19:44 64.84248 25.64552 2306 ft 194 kts 311°
2026-04-30 19:44 64.85150 25.62189 2305 ft 195 kts 311°
2026-04-30 19:44 64.86016 25.59876 2294 ft 174 kts 310°
2026-04-30 19:45 64.86781 25.57815 2277 ft 167 kts 310°
2026-04-30 19:45 64.87458 25.55845 2040 ft 146 kts 306°
2026-04-30 19:45 64.88053 25.53937 1728 ft 143 kts 304°
2026-04-30 19:45 64.88612 25.52017 1409 ft 141 kts 298°
2026-04-30 19:46 64.89165 25.50116 1131 ft 143 kts 303°
2026-04-30 19:46 64.89723 25.48205 959 ft 142 kts 300°
2026-04-30 19:46 64.90269 25.46237 814 ft 145 kts 300°
2026-04-30 19:46 64.90781 25.44234 600 ft 145 kts 300°
2026-04-30 19:47 64.91315 25.42157 358 ft 146 kts 298°
2026-04-30 19:47 64.91835 25.40144 254 ft 145 kts 297°
2026-04-30 19:47 64.92347 25.38076 124 ft 145 kts 300°
2026-04-30 19:47 64.92819 25.36209 51 ft 124 kts 301°
2026-04-30 19:48 64.93221 25.34651 50 ft 85 kts 301°
2026-04-30 19:48 64.93377 25.33958 53 ft 15 kts 257°
2026-04-30 19:48 64.93249 25.33779 53 ft 35 kts 188°
2026-04-30 19:48 64.93176 25.33710 52 ft 5 kts 274°
2026-04-30 19:49 64.93178 25.33681 54 ft 0 kts 279°